sat.trackr.live / text

‹ back to catalog

STARLINK-1568

NORAD 46080 · 2020-055BF

PAYLOAD ACTIVE UNKNOWN

§ Identity

Operator
Country
US
Launch date
2020-08-07
Launch site
AFETR
Launch vehicle
Mass (kg)
RCS (m²)

Purposes: comms

External: N2YO · Heavens-Above · Gunter

§ Orbital elements

Epoch: 2026-05-25T01:07:13.446624Z

Period
92.74 min
Inclination
53.0604°
Eccentricity
0.0004284
Mean motion
15.52745526 rev/d
Perigee alt
405.8 km
Apogee alt
411.6 km
Semi-major
6,786.9 km
B*
6.6044e-4
RAAN
26.8370°
Arg perigee
54.9591°
Mean anomaly
305.1820°
Rev number
32,203

§ Raw data

STARLINK-15681 46080U 20055BF  26145.04668341  .00041282  00000+0  66044-3 0  99992 46080  53.0604  26.8370 0004284  54.9591 305.1820 15.52745526322036

JSON: /api/v1/satellites/46080 · /tle

For live sub-satellite position, see the globe view (requires WebGL).

§ Visibility from observer

Set your observer location to see the next 7 days of passes ≥ 10°. The values pass through the URL so the page stays shareable.

No JS? Fill the form by hand. The geolocation button needs JavaScript.